User: anonymous   Login
Location: Betra
(48.4113°N, 8.6634°E)
Time: 14:15:25
(UTC+00:00)
Language:

Cosmos 724 - Orbit

View from above orbital plane
View from above orbital plane
View from above satellite
View from above satellite

Ground track
Ground track

The orbit data is extracted from the following two-line orbital elements,

1 07727U 75025A   24195.96872582 -.00000002  00000-0  59001-4 0  9992
2 07727  65.5902  84.6482 0045474  81.3833 279.2388 13.99030697517317
Epoch (UTC): 13 July 2024 23:14:57
Eccentricity: 0.0045474
inclination: 65.5902°
perigee height: 864 km
apogee height: 930 km
right ascension of ascending node: 84.6482°
argument of perigee: 81.3833°
revolutions per day: 13.99030697
mean anomaly at epoch: 279.2388°
orbit number at epoch: 51731

The dashed part of the orbit path shows where the satellite is in the earth's shadow,  

DLR